Alva, OK

8:59 PM CDT on June 27, 2017 (GMT -0500)
Alva Regional

Weather History for KAVK - March, 2013

Change the Weather History Date:

Friday, March 22, 2013

  Actual Average Record
Temperature  
Mean Temperature 40 °F -  
Max Temperature 48 °F 66 °F 86 °F (1972)
Min Temperature 33 °F 37 °F 15 °F (1955)
Degree Days  
Heating Degree Days 24    
Moisture  
Dew Point 32 °F    
Average Humidity 78    
Maximum Humidity 93    
Minimum Humidity 54    
Precipitation  
Precipitation 0.00 in - - ()
Sea Level Pressure  
Sea Level Pressure 29.88 in    
Wind  
Wind Speed 12 mph (NE)    
Max Wind Speed 17 mph    
Max Gust Speed 24 mph    
Visibility 9 miles    
Events Rain , Thunderstorm    
Averages and records for this station are not official NWS values.
T = Trace of Precipitation, MM = Missing Value Source: NWS Daily Summary

Daily Weather History Graph

Daily Weather History Graph

Search for Another Location

Airport or City:

Trip Planner

Search our weather history database for the weather conditions in past years. The results will help you decide how hot, cold, wet, or windy it might be!

Date:

Astronomy

Mar. 22, 2013 Rise Set
Actual Time 7:34 AM CDT 7:48 PM CDT
Civil Twilight 7:09 AM CDT 8:14 PM CDT
Nautical Twilight 6:38 AM CDT 8:44 PM CDT
Astronomical Twilight 6:08 AM CDT 9:15 PM CDT
Moon 3:23 PM CDT (3/22) 4:29 AM CDT (3/22)
Length of Visible Light 13h 05m
Length of Day
12h 13m
Waxing Gibbous, 77% of the Moon is Illuminated
Mar 22
Waxing Gibbous
Mar 27
Full
Apr 2
Last Quarter
Apr 10
New
Apr 18
First Quarter

Hourly Weather History & Observations

Time (CDT) Temp. Windchill Dew Point Humidity Pressure Visibility Wind Dir Wind Speed Gust Speed Precip Events Conditions
12:10 AM 37.4 °F 28.5 °F 32.0 °F 81% 29.79 in 10.0 mi ENE 15.0 mph 24.2 mph N/A   Overcast
12:30 AM 37.4 °F 28.2 °F 32.0 °F 81% 29.80 in 10.0 mi ENE 16.1 mph 20.7 mph N/A   Overcast
12:50 AM 37.4 °F 27.8 °F 32.0 °F 81% 29.80 in 10.0 mi NE 17.3 mph - N/A   Overcast
1:10 AM 37.4 °F 28.2 °F 32.0 °F 81% 29.83 in 10.0 mi NE 16.1 mph - N/A   Overcast
1:30 AM 37.4 °F 28.5 °F 32.0 °F 81% 29.84 in 10.0 mi NNE 15.0 mph - N/A   Overcast
1:50 AM 35.6 °F 27.1 °F 32.0 °F 87% 29.85 in 8.0 mi NNE 12.7 mph 24.2 mph N/A Rain , Thunderstorm Light Thunderstorms and Rain
2:10 AM 35.6 °F 25.5 °F 32.0 °F 87% 29.85 in 10.0 mi NNE 17.3 mph 24.2 mph N/A Thunderstorm Overcast
2:30 AM 35.6 °F 25.9 °F 32.0 °F 87% 29.86 in 9.0 mi NNE 16.1 mph - N/A Thunderstorm Overcast
2:50 AM 35.6 °F 25.5 °F 32.0 °F 87% 29.87 in 9.0 mi NNE 17.3 mph - N/A Thunderstorm Overcast
3:10 AM 35.6 °F 25.9 °F 32.0 °F 87% 29.87 in 10.0 mi NNE 16.1 mph - N/A   Overcast
3:30 AM 35.6 °F 26.2 °F 32.0 °F 87% 29.88 in 10.0 mi NNE 15.0 mph - N/A   Overcast
3:50 AM 35.6 °F 27.5 °F 32.0 °F 87% 29.88 in 10.0 mi NNE 11.5 mph - N/A   Overcast
4:10 AM 35.6 °F 26.6 °F 32.0 °F 87% 29.87 in 10.0 mi NNE 13.8 mph - N/A   Overcast
4:30 AM 35.6 °F 26.2 °F 32.0 °F 87% 29.87 in 10.0 mi NNE 15.0 mph - N/A   Overcast
4:50 AM 35.6 °F 26.2 °F 32.0 °F 87% 29.86 in 9.0 mi NE 15.0 mph 19.6 mph N/A   Overcast
5:10 AM 35.6 °F 27.1 °F 32.0 °F 87% 29.86 in 9.0 mi NE 12.7 mph - N/A   Overcast
5:30 AM 35.6 °F 28.0 °F 32.0 °F 87% 29.87 in 9.0 mi NNE 10.4 mph - N/A   Overcast
5:50 AM 35.6 °F 28.6 °F 32.0 °F 87% 29.87 in 10.0 mi NE 9.2 mph - N/A   Overcast
6:10 AM 35.6 °F 27.1 °F 32.0 °F 87% 29.88 in 9.0 mi NNE 12.7 mph - N/A   Overcast
6:30 AM 35.6 °F 27.5 °F 32.0 °F 87% 29.88 in 8.0 mi NNE 11.5 mph - N/A   Overcast
6:50 AM 33.8 °F 26.4 °F 32.0 °F 93% 29.89 in 8.0 mi NE 9.2 mph - N/A   Overcast
7:10 AM 33.8 °F 25.8 °F 32.0 °F 93% 29.89 in 8.0 mi NE 10.4 mph - N/A   Overcast
7:30 AM 33.8 °F 25.3 °F 32.0 °F 93% 29.91 in 8.0 mi NE 11.5 mph - N/A   Overcast
7:50 AM 33.8 °F 27.7 °F 30.2 °F 87% 29.92 in 9.0 mi NE 6.9 mph - N/A   Overcast
8:10 AM 33.8 °F 25.3 °F 32.0 °F 93% 29.92 in 9.0 mi NNE 11.5 mph - N/A   Overcast
8:30 AM 33.8 °F 25.8 °F 30.2 °F 87% 29.92 in 7.0 mi NNE 10.4 mph - N/A   Overcast
8:50 AM 33.8 °F 25.3 °F 30.2 °F 87% 29.92 in 7.0 mi NNE 11.5 mph - N/A   Overcast
9:10 AM 35.6 °F 26.6 °F 32.0 °F 87% 29.92 in 7.0 mi NNE 13.8 mph - N/A   Overcast
9:50 AM 35.6 °F 28.0 °F 32.0 °F 87% 29.93 in 7.0 mi NE 10.4 mph - N/A   Overcast
10:10 AM 35.6 °F 28.0 °F 32.0 °F 87% 29.95 in 7.0 mi NNW 10.4 mph - N/A   Overcast
10:50 AM 35.6 °F 28.6 °F 32.0 °F 87% 29.95 in 8.0 mi North 9.2 mph - N/A   Overcast
11:10 AM 35.6 °F 27.5 °F 32.0 °F 87% 29.94 in 8.0 mi North 11.5 mph - N/A   Overcast
11:30 AM 37.4 °F 29.3 °F 32.0 °F 81% 29.95 in 8.0 mi North 12.7 mph - N/A   Overcast
11:50 AM 37.4 °F 30.8 °F 32.0 °F 81% 29.95 in 9.0 mi North 9.2 mph - N/A   Overcast
12:10 PM 37.4 °F 30.8 °F 32.0 °F 81% 29.95 in 8.0 mi North 9.2 mph - N/A   Overcast
12:30 PM 37.4 °F 30.3 °F 32.0 °F 81% 29.95 in 8.0 mi North 10.4 mph - N/A   Overcast
12:50 PM 37.4 °F 30.3 °F 32.0 °F 81% 29.95 in 9.0 mi NE 10.4 mph - N/A   Overcast
1:10 PM 39.2 °F 34.2 °F 32.0 °F 75% 29.94 in 8.0 mi NE 6.9 mph - N/A   Overcast
1:30 PM 39.2 °F 35.0 °F 32.0 °F 75% 29.94 in 9.0 mi North 5.8 mph - N/A   Overcast
1:50 PM 39.2 °F - 32.0 °F 75% 29.93 in 9.0 mi Calm Calm - N/A   Overcast
2:10 PM 41.0 °F 35.8 °F 32.0 °F 70% 29.92 in 9.0 mi NNE 8.1 mph - N/A   Overcast
2:30 PM 41.0 °F 35.8 °F 32.0 °F 70% 29.89 in 10.0 mi North 8.1 mph - N/A   Mostly Cloudy
2:50 PM 42.8 °F 38.0 °F 32.0 °F 66% 29.89 in 9.0 mi NE 8.1 mph - N/A   Partly Cloudy
3:10 PM 44.6 °F 43.1 °F 32.0 °F 61% 29.88 in 10.0 mi NE 3.5 mph - N/A   Clear
3:30 PM 44.6 °F 41.4 °F 32.0 °F 61% 29.87 in 10.0 mi ENE 5.8 mph - N/A   Clear
3:50 PM 46.4 °F 43.5 °F 32.0 °F 57% 29.87 in 10.0 mi NE 5.8 mph - N/A   Clear
4:10 PM 46.4 °F 44.3 °F 32.0 °F 57% 29.86 in 10.0 mi East 4.6 mph - N/A   Clear
4:30 PM 46.4 °F 42.4 °F 32.0 °F 57% 29.86 in 10.0 mi East 8.1 mph - N/A   Clear
4:50 PM 46.4 °F 45.2 °F 32.0 °F 57% 29.85 in 10.0 mi East 3.5 mph - N/A   Clear
5:10 PM 46.4 °F 42.4 °F 32.0 °F 57% 29.85 in 10.0 mi ENE 8.1 mph - N/A   Clear
5:30 PM 46.4 °F 42.4 °F 32.0 °F 57% 29.85 in 10.0 mi ENE 8.1 mph - N/A   Clear
5:50 PM 46.4 °F 41.9 °F 32.0 °F 57% 29.85 in 10.0 mi ENE 9.2 mph - N/A   Clear
6:10 PM 46.4 °F 41.9 °F 32.0 °F 57% 29.84 in 10.0 mi East 9.2 mph - N/A   Clear
6:30 PM 48.2 °F - 32.0 °F 54% 29.84 in 10.0 mi East 9.2 mph - N/A   Clear
6:50 PM 46.4 °F 41.9 °F 32.0 °F 57% 29.85 in 10.0 mi ESE 9.2 mph - N/A   Clear
7:10 PM 46.4 °F 41.9 °F 32.0 °F 57% 29.85 in 10.0 mi East 9.2 mph - N/A   Clear
7:30 PM 44.6 °F 39.7 °F 33.8 °F 66% 29.85 in 10.0 mi ESE 9.2 mph - N/A   Clear
7:50 PM 42.8 °F 38.6 °F 33.8 °F 70% 29.85 in 9.0 mi ESE 6.9 mph - N/A   Clear
8:10 PM 41.0 °F 36.4 °F 33.8 °F 76% 29.86 in 10.0 mi ESE 6.9 mph - N/A   Partly Cloudy
8:30 PM 39.2 °F 33.6 °F 32.0 °F 75% 29.86 in 10.0 mi SE 8.1 mph - N/A   Mostly Cloudy
8:50 PM 39.2 °F 33.0 °F 32.0 °F 75% 29.86 in 10.0 mi ESE 9.2 mph - N/A   Mostly Cloudy
9:10 PM 37.4 °F 32.1 °F 32.0 °F 81% 29.87 in 10.0 mi East 6.9 mph - N/A   Mostly Cloudy
9:30 PM 37.4 °F 31.4 °F 32.0 °F 81% 29.87 in 10.0 mi ESE 8.1 mph - N/A   Mostly Cloudy
9:50 PM 37.4 °F 32.1 °F 32.0 °F 81% 29.88 in 9.0 mi ESE 6.9 mph - N/A   Mostly Cloudy
10:10 PM 35.6 °F 29.9 °F 32.0 °F 87% 29.89 in 8.0 mi ESE 6.9 mph - N/A   Overcast
10:30 PM 35.6 °F 29.9 °F 32.0 °F 87% 29.89 in 7.0 mi SSE 6.9 mph - N/A   Overcast
10:50 PM 35.6 °F 28.6 °F 32.0 °F 87% 29.89 in 7.0 mi SE 9.2 mph - N/A   Overcast
11:10 PM 33.8 °F 27.7 °F 32.0 °F 93% 29.91 in 7.0 mi SE 6.9 mph - N/A   Overcast
11:30 PM 35.6 °F 28.0 °F 32.0 °F 87% 29.90 in 8.0 mi ESE 10.4 mph - N/A   Overcast
11:50 PM 35.6 °F 27.1 °F 32.0 °F 87% 29.90 in 9.0 mi East 12.7 mph - N/A   Overcast